DW4879 Weather Reports


Display with metric or nautical units.
time (UTC)temp
F
wind
direction
speed
MPH
gust
MPH
rain 1hr
in
rain 24hr
in
rain mn
in
humidity
%
barometer
mb
20260903222048 88 257 1.0 8.0 0.00 0.00 0.00 26 1020.8
20260903221556 88 145 3.0 11.0 0.00 0.00 0.00 26 1020.9
20260903221102 88 235 6.0 11.0 0.00 0.00 0.00 26 1021.0
20260903220505 87 255 4.0 8.0 0.00 0.00 0.00 26 1021.0
20260903220107 87 203 5.0 8.0 0.00 0.00 0.00 26 1020.9
20260903215549 87 15 1.0 6.0 0.00 0.00 0.00 26 1021.1
20260903215056 86 176 2.0 6.0 0.00 0.00 0.00 27 1021.2
20260903214604 86 340 1.0 4.0 0.00 0.00 0.00 27 1021.2
20260903214007 85 329 2.0 6.0 0.00 0.00 0.00 28 1021.3
20260903213605 85 292 3.0 12.0 0.00 0.00 0.00 27 1021.3
20260903213013 85 329 7.0 12.0 0.00 0.00 0.00 27 1021.2
20260903212605 86 294 3.0 9.0 0.00 0.00 0.00 27 1021.3
20260903212006 86 271 5.0 9.0 0.00 0.00 0.00 26 1021.4
20260903211515 87 217 1.0 8.0 0.00 0.00 0.00 27 1021.5
20260903211022 87 229 4.0 10.0 0.00 0.00 0.00 27 1021.5
20260903210531 87 215 2.0 10.0 0.00 0.00 0.00 27 1021.6
20260903210048 86 201 1.0 10.0 0.00 0.00 0.00 28 1021.6
20260903205546 85 215 6.0 10.0 0.00 0.00 0.00 29 1021.8
20260903205037 84 96 2.0 9.0 0.00 0.00 0.00 29 1021.8
20260903204546 85 96 4.0 9.0 0.00 0.00 0.00 28 1021.8
20260903204055 85 169 5.0 9.0 0.00 0.00 0.00 28 1021.9
20260903203603 85 188 2.0 9.0 0.00 0.00 0.00 28 1021.9
20260903203052 85 275 3.0 9.0 0.00 0.00 0.00 28 1022.0
20260903202600 86 193 2.0 10.0 0.00 0.00 0.00 27 1022.0
20260903202053 87 193 4.0 10.0 0.00 0.00 0.00 27 1021.9
20260903201601 86 226 5.0 15.0 0.00 0.00 0.00 27 1022.0
20260903201053 85 180 6.0 11.0 0.00 0.00 0.00 29 1022.0
20260903200543 83 234 3.0 13.0 0.00 0.00 0.00 30 1022.1
20260903200058 82 252 9.0 13.0 0.00 0.00 0.00 30 1022.0
20260903195546 82 265 7.0 10.0 0.00 0.00 0.00 30 1022.1
20260903195052 82 251 0.0 9.0 0.00 0.00 0.00 31 1022.2
20260903194600 82 238 6.0 11.0 0.00 0.00 0.00 31 1022.3
20260903194002 83 340 6.0 12.0 0.00 0.00 0.00 29 1022.4
20260903193600 83 292 3.0 10.0 0.00 0.00 0.00 29 1022.5
20260903193004 83 271 5.0 13.0 0.00 0.00 0.00 30 1022.6
20260903192602 83 9 6.0 13.0 0.00 0.00 0.00 29 1022.6
20260903192052 84 331 2.0 8.0 0.00 0.00 0.00 30 1022.8
20260903191559 83 133 4.0 10.0 0.00 0.00 0.00 30 1022.9
20260903191053 82 294 5.0 13.0 0.00 0.00 0.00 30 1022.9
20260903190544 83 271 5.0 13.0 0.00 0.00 0.00 30 1022.9
20260903190054 83 247 3.0 9.0 0.00 0.00 0.00 30 1023.0
20260903185559 82 238 3.0 10.0 0.00 0.00 0.00 31 1023.0
20260903185002 82 268 3.0 7.0 0.00 0.00 0.00 31 1023.1
20260903184556 81 221 3.0 9.0 0.00 0.00 0.00 31 1023.2
20260903184104 81 313 3.0 10.0 0.00 0.00 0.00 31 1023.3
20260903183556 81 262 4.0 10.0 0.00 0.00 0.00 32 1023.3
20260903183105 81 334 5.0 10.0 0.00 0.00 0.00 31 1023.4
20260903182558 81 171 2.0 5.0 0.00 0.00 0.00 31 1023.5
20260903182049 80 19 0.0 9.0 0.00 0.00 0.00 33 1023.5
20260903181556 79 223 3.0 10.0 0.00 0.00 0.00 32 1023.6
20260903181104 80 268 5.0 10.0 0.00 0.00 0.00 33 1023.6
20260903180506 79 341 1.0 9.0 0.00 0.00 0.00 34 1023.7
20260903180053 79 5 2.0 11.0 0.00 0.00 0.00 34 1023.8
20260903175602 78 266 6.0 12.0 0.00 0.00 0.00 34 1023.8
20260903175003 78 306 7.0 12.0 0.00 0.00 0.00 34 1023.8
20260903174558 78 267 5.0 9.0 0.00 0.00 0.00 34 1023.8
20260903174003 77 289 1.0 12.0 0.00 0.00 0.00 36 1024.0
20260903173559 77 294 7.0 11.0 0.00 0.00 0.00 35 1023.9
20260903173007 78 297 5.0 10.0 0.00 0.00 0.00 35 1023.9
20260903172601 78 282 4.0 9.0 0.00 0.00 0.00 34 1023.9
20260903172055 79 249 2.0 9.0 0.00 0.00 0.00 33 1023.9
20260903171603 79 304 4.0 8.0 0.00 0.00 0.00 33 1024.0
20260903171108 79 204 2.0 8.0 0.00 0.00 0.00 35 1023.9
20260903170508 80 264 3.0 6.0 0.00 0.00 0.00 35 1023.9
20260903170108 79 215 3.0 6.0 0.00 0.00 0.00 37 1023.9
20260903165507 79 118 1.0 4.0 0.00 0.00 0.00 38 1023.9
20260903165105 78 175 0.0 4.0 0.00 0.00 0.00 38 1024.0
20260903164508 78 50 1.0 3.0 0.00 0.00 0.00 39 1023.9
20260903164105 77 84 0.0 4.0 0.00 0.00 0.00 39 1023.9
20260903163555 77 169 1.0 4.0 0.00 0.00 0.00 40 1024.0
20260903163102 76 155 1.0 3.0 0.00 0.00 0.00 41 1023.9
20260903162504 76 66 1.0 5.0 0.00 0.00 0.00 42 1023.9
20260903162013 75 135 1.0 4.0 0.00 0.00 0.00 42 1023.9
20260903161522 75 163 2.0 4.0 0.00 0.00 0.00 43 1023.9
20260903161027 74 207 2.0 4.0 0.00 0.00 0.00 44 1023.8
20260903160535 74 119 2.0 7.0 0.00 0.00 0.00 45 1023.9
20260903160043 73 144 2.0 7.0 0.00 0.00 0.00 45 1023.9
20260903155548 73 113 2.0 8.0 0.00 0.00 0.00 46 1023.9
20260903155056 72 150 3.0 8.0 0.00 0.00 0.00 47 1024.0
20260903154604 72 115 3.0 8.0 0.00 0.00 0.00 47 1023.9
20260903154006 71 142 5.0 8.0 0.00 0.00 0.00 48 1024.0
20260903153517 71 90 4.0 8.0 0.00 0.00 0.00 48 1024.0
20260903153019 70 110 5.0 8.0 0.00 0.00 0.00 49 1024.0
20260903152527 70 116 3.0 8.0 0.00 0.00 0.00 49 1024.0
20260903152035 70 135 4.0 8.0 0.00 0.00 0.00 50 1024.0
20260903151543 69 147 3.0 8.0 0.00 0.00 0.00 51 1023.9
20260903151051 69 107 5.0 8.0 0.00 0.00 0.00 51 1024.0
20260903150542 68 121 5.0 8.0 0.00 0.00 0.00 52 1024.0
20260903150059 68 117 5.0 9.0 0.00 0.00 0.00 52 1024.0
20260903145557 67 126 5.0 9.0 0.00 0.00 0.00 51 1023.9
20260903145002 67 119 4.0 7.0 0.00 0.00 0.00 54 1023.9
20260903144556 67 105 3.0 7.0 0.00 0.00 0.00 54 1024.0
20260903144104 66 88 3.0 8.0 0.00 0.00 0.00 54 1024.0
20260903143556 66 86 3.0 8.0 0.00 0.00 0.00 54 1024.0
20260903143110 65 110 4.0 8.0 0.00 0.00 0.00 54 1023.9
20260903142557 65 86 4.0 8.0 0.00 0.00 0.00 55 1023.9
20260903142049 65 103 3.0 8.0 0.00 0.00 0.00 56 1023.8
20260903141555 64 124 5.0 8.0 0.00 0.00 0.00 55 1023.8
20260903141103 64 135 5.0 8.0 0.00 0.00 0.00 56 1023.7
20260903140507 64 121 4.0 8.0 0.00 0.00 0.00 56 1023.7
20260903140051 63 111 5.0 8.0 0.00 0.00 0.00 57 1023.7
20260903135601 63 121 4.0 8.0 0.00 0.00 0.00 58 1023.7
20260903135053 62 107 5.0 8.0 0.00 0.00 0.00 59 1023.7
20260903134611 62 119 4.0 8.0 0.00 0.00 0.00 60 1023.7
20260903134005 61 105 5.0 7.0 0.00 0.00 0.00 61 1023.6
20260903133600 61 128 4.0 7.0 0.00 0.00 0.00 61 1023.6
20260903133002 60 111 3.0 6.0 0.00 0.00 0.00 62 1023.6
20260903132558 60 122 3.0 6.0 0.00 0.00 0.00 63 1023.6
20260903132048 59 107 4.0 6.0 0.00 0.00 0.00 64 1023.6
20260903131557 59 123 3.0 6.0 0.00 0.00 0.00 64 1023.6
20260903131105 58 117 3.0 5.0 0.00 0.00 0.00 65 1023.4
20260903130507 58 99 4.0 7.0 0.00 0.00 0.00 65 1023.4
20260903125506 58 99 3.0 7.0 0.00 0.00 0.00 66 1023.4
20260903125013 58 88 3.0 8.0 0.00 0.00 0.00 66 1023.3
20260903124519 58 90 4.0 8.0 0.00 0.00 0.00 66 1023.2
20260903124027 58 67 4.0 8.0 0.00 0.00 0.00 65 1023.2
20260903123536 58 92 4.0 8.0 0.00 0.00 0.00 65 1023.3
20260903123043 58 89 4.0 9.0 0.00 0.00 0.00 65 1023.3
20260903122553 58 87 6.0 9.0 0.00 0.00 0.00 65 1023.1
20260903122059 58 107 4.0 7.0 0.00 0.00 0.00 65 1023.1
20260903121502 58 96 3.0 7.0 0.00 0.00 0.00 65 1023.1
20260903121057 58 96 4.0 7.0 0.00 0.00 0.00 65 1023.1
20260903120607 58 108 4.0 6.0 0.00 0.00 0.00 65 1023.1
20260903120056 58 144 5.0 8.0 0.00 0.00 0.00 64 1023.0
20260903115604 58 114 5.0 8.0 0.00 0.00 0.00 64 1023.0
20260903115056 59 123 5.0 7.0 0.00 0.00 0.00 64 1023.0
20260903114605 59 101 3.0 6.0 0.00 0.00 0.00 63 1023.0
20260903114010 59 80 3.0 6.0 0.00 0.00 0.00 63 1022.9
20260903113606 59 105 4.0 8.0 0.00 0.00 0.00 63 1022.9
20260903113006 59 111 5.0 8.0 0.00 0.00 0.00 63 1022.8
20260903112518 59 138 2.0 6.0 0.00 0.00 0.00 63 1022.9
20260903112022 59 107 2.0 6.0 0.00 0.00 0.00 62 1022.9
20260903111530 60 135 3.0 6.0 0.00 0.00 0.00 62 1022.9
20260903111040 60 117 2.0 6.0 0.00 0.00 0.00 61 1022.9
20260903110547 60 115 2.0 6.0 0.00 0.00 0.00 61 1022.9
20260903110051 60 102 3.0 5.0 0.00 0.00 0.00 61 1022.9
20260903105545 60 78 2.0 6.0 0.00 0.00 0.00 61 1022.8
20260903105049 60 80 3.0 6.0 0.00 0.00 0.00 61 1022.8
20260903104605 60 96 3.0 6.0 0.00 0.00 0.00 60 1022.8
20260903104001 60 99 2.0 6.0 0.00 0.00 0.00 60 1022.8
20260903103556 60 98 4.0 6.0 0.00 0.00 0.00 60 1022.8
20260903103104 61 103 3.0 6.0 0.00 0.00 0.00 59 1022.8
20260903102557 61 113 2.0 4.0 0.00 0.00 0.00 59 1022.8
20260903102047 61 117 2.0 4.0 0.00 0.00 0.00 59 1022.9
20260903101556 61 101 3.0 4.0 0.00 0.00 0.00 59 1022.9
20260903101102 61 88 2.0 4.0 0.00 0.00 0.00 59 1022.9
20260903100505 61 101 3.0 4.0 0.00 0.00 0.00 59 1022.9
20260903100042 61 126 2.0 6.0 0.00 0.00 0.00 59 1023.0
20260903095549 61 92 3.0 6.0 0.00 0.00 0.00 59 1023.0
20260903095058 61 90 2.0 4.0 0.00 0.00 0.00 59 1022.9
20260903094502 61 105 2.0 4.0 0.00 0.00 0.00 58 1022.8
20260903094057 62 109 2.0 4.0 0.00 0.00 0.00 58 1022.9
20260903093606 62 107 2.0 4.0 0.00 0.00 0.00 58 1022.8
20260903093103 62 99 1.0 4.0 0.00 0.00 0.00 58 1022.9
20260903092605 62 95 2.0 5.0 0.00 0.00 0.00 58 1022.9
20260903092058 62 105 3.0 5.0 0.00 0.00 0.00 58 1022.8
20260903091500 62 98 3.0 6.0 0.00 0.00 0.00 58 1022.8
20260903091009 62 123 3.0 6.0 0.00 0.00 0.00 57 1022.8
20260903090606 62 128 3.0 4.0 0.00 0.00 0.00 57 1022.8
20260903090008 62 126 2.0 4.0 0.00 0.00 0.00 57 1022.7
20260903085603 62 117 2.0 6.0 0.00 0.00 0.00 57 1022.7
20260903085006 62 121 2.0 6.0 0.00 0.00 0.00 56 1022.8
20260903084604 63 116 3.0 6.0 0.00 0.00 0.00 56 1022.7
20260903084007 62 114 3.0 6.0 0.00 0.00 0.00 56 1022.7
20260903083604 62 98 3.0 6.0 0.00 0.00 0.00 57 1022.7
20260903083054 62 97 2.0 4.0 0.00 0.00 0.00 57 1022.7
20260903082601 62 61 0.0 2.0 0.00 0.00 0.00 56 1022.7
20260903082054 63 61 0.0 2.0 0.00 0.00 0.00 56 1022.7
20260903081602 63 61 0.0 3.0 0.00 0.00 0.00 56 1022.8
20260903081054 63 73 2.0 4.0 0.00 0.00 0.00 56 1022.8
20260903080545 63 32 2.0 4.0 0.00 0.00 0.00 55 1022.8
20260903080053 63 101 2.0 4.0 0.00 0.00 0.00 55 1022.7
20260903075601 63 123 2.0 6.0 0.00 0.00 0.00 55 1022.7
20260903075003 63 115 3.0 6.0 0.00 0.00 0.00 55 1022.8
20260903074559 63 134 3.0 6.0 0.00 0.00 0.00 55 1022.8
20260903074004 64 123 3.0 6.0 0.00 0.00 0.00 55 1022.7
20260903073601 64 131 4.0 6.0 0.00 0.00 0.00 54 1022.7
20260903073003 64 113 3.0 4.0 0.00 0.00 0.00 54 1022.7
20260903072600 64 119 3.0 4.0 0.00 0.00 0.00 54 1022.7
20260903072052 64 96 2.0 4.0 0.00 0.00 0.00 54 1022.8
20260903071603 64 95 2.0 4.0 0.00 0.00 0.00 53 1022.8
20260903071054 64 75 1.0 3.0 0.00 0.00 0.00 53 1022.7
20260903070541 64 5 0.0 3.0 0.00 0.00 0.00 53 1022.7
20260903070050 64 80 1.0 3.0 0.00 0.00 0.00 53 1022.6
20260903065558 65 36 1.0 4.0 0.00 0.00 0.00 53 1022.5
20260903065000 65 67 1.0 4.0 0.00 0.00 0.00 52 1022.5
20260903064556 65 100 2.0 4.0 0.00 0.00 0.00 52 1022.5
20260903064103 65 96 2.0 3.0 0.00 0.00 0.00 52 1022.5
20260903063557 65 360 0.0 3.0 0.00 0.00 0.00 52 1022.6
20260903063109 65 92 0.0 5.0 0.00 0.00 0.00 52 1022.6
20260903062557 65 84 2.0 8.0 0.00 0.00 0.00 52 1022.5
20260903062047 66 102 4.0 8.0 0.00 0.00 0.00 52 1022.3
20260903061601 65 90 3.0 8.0 0.00 0.00 0.00 52 1022.3
20260903061108 66 155 3.0 8.0 0.00 0.00 0.00 52 1022.4
20260903060505 66 96 3.0 7.0 0.00 0.00 0.00 51 1022.4
20260903060103 66 91 4.0 7.0 0.00 0.00 0.00 51 1022.3
20260903055506 66 88 3.0 6.0 0.00 0.00 0.00 51 1022.5
20260903055103 66 104 3.0 4.0 0.00 0.00 0.00 51 1022.4
20260903054553 66 134 2.0 6.0 0.00 0.00 0.00 50 1022.3
20260903054101 67 109 3.0 4.0 0.00 0.00 0.00 50 1022.5
20260903053555 67 110 2.0 4.0 0.00 0.00 0.00 49 1022.5
20260903053102 67 103 2.0 6.0 0.00 0.00 0.00 49 1022.5
20260903052555 67 114 3.0 6.0 0.00 0.00 0.00 49 1022.5
20260903052102 68 113 3.0 5.0 0.00 0.00 0.00 48 1022.5
20260903051507 68 123 1.0 2.0 0.00 0.00 0.00 47 1022.5
20260903051102 69 123 0.0 2.0 0.00 0.00 0.00 47 1022.6
20260903050502 69 84 0.0 1.0 0.00 0.00 0.00 46 1022.6
20260903050100 69 84 0.0 2.0 0.00 0.00 0.00 46 1022.5
20260903045505 69 84 1.0 5.0 0.00 0.00 0.00 46 1022.5
20260903045103 69 76 2.0 5.0 0.00 0.00 0.00 46 1022.5
20260903044554 69 84 2.0 5.0 0.00 0.00 0.00 46 1022.4
20260903044100 70 72 2.0 5.0 0.00 0.00 0.00 45 1022.4
20260903043554 70 81 2.0 5.0 0.00 0.00 0.00 45 1022.4
20260903043101 70 84 2.0 4.0 0.00 0.00 0.00 44 1022.4
20260903042555 71 113 2.0 6.0 0.00 0.00 0.00 44 1022.3
20260903042043 71 88 3.0 7.0 0.00 0.00 0.00 44 1022.3
20260903041551 71 85 3.0 5.0 0.00 0.00 0.00 44 1022.3
20260903041101 71 90 3.0 5.0 0.00 0.00 0.00 44 1022.3
20260903040502 71 74 2.0 5.0 0.00 0.00 0.00 44 1022.4
20260903040103 71 63 2.0 5.0 0.00 0.00 0.00 44 1022.4
20260903035604 71 63 2.0 5.0 0.00 0.00 0.00 44 1022.3
20260903035056 71 76 2.0 4.0 0.00 0.00 0.00 44 1022.2
20260903034604 72 80 2.0 5.0 0.00 0.00 0.00 44 1022.1
20260903034008 72 60 3.0 6.0 0.00 0.00 0.00 44 1022.1
20260903033602 72 51 3.0 6.0 0.00 0.00 0.00 44 1022.0
20260903033005 71 50 3.0 6.0 0.00 0.00 0.00 44 1021.9
20260903032603 71 49 3.0 6.0 0.00 0.00 0.00 44 1021.9
20260903032006 71 63 3.0 6.0 0.00 0.00 0.00 44 1021.9
20260903031602 71 30 2.0 4.0 0.00 0.00 0.00 43 1021.9
20260903031052 72 11 1.0 2.0 0.00 0.00 0.00 42 1021.8
20260903030600 72 351 1.0 2.0 0.00 0.00 0.00 42 1021.7
20260903030053 72 351 1.0 2.0 0.00 0.00 0.00 41 1021.7
20260903025543 73 351 1.0 2.0 0.00 0.00 0.00 41 1021.7
20260903025050 73 351 1.0 2.0 0.00 0.00 0.00 41 1021.6
20260903024559 73 315 1.0 2.0 0.00 0.00 0.00 41 1021.7
20260903024002 74 315 1.0 2.0 0.00 0.00 0.00 40 1021.6
20260903023556 74 315 1.0 2.0 0.00 0.00 0.00 40 1021.5
20260903023135 74 313 0.0 2.0 0.00 0.00 0.00 40 1021.6
20260903022555 74 311 0.0 2.0 0.00 0.00 0.00 40 1021.5
20260903022045 74 311 0.0 2.0 0.00 0.00 0.00 40 1021.5
20260903021554 75 311 1.0 2.0 0.00 0.00 0.00 39 1021.6
20260903021102 75 311 1.0 2.0 0.00 0.00 0.00 39 1021.6
20260903020507 75 311 1.0 3.0 0.00 0.00 0.00 39 1021.7
20260903020107 76 307 1.0 3.0 0.00 0.00 0.00 38 1021.5
20260903015552 76 307 1.0 4.0 0.00 0.00 0.00 38 1021.5
20260903015100 76 301 2.0 4.0 0.00 0.00 0.00 38 1021.6
20260903014553 76 302 2.0 5.0 0.00 0.00 0.00 38 1021.6
20260903014101 77 296 2.0 7.0 0.00 0.00 0.00 37 1021.7
20260903013504 77 298 3.0 7.0 0.00 0.00 0.00 37 1021.7
20260903013014 77 313 4.0 7.0 0.00 0.00 0.00 37 1021.6
20260903012503 78 306 3.0 8.0 0.00 0.00 0.00 37 1021.7
20260903012058 78 315 4.0 8.0 0.00 0.00 0.00 37 1021.6
20260903011502 78 322 4.0 8.0 0.00 0.00 0.00 37 1021.7
20260903011059 79 295 5.0 8.0 0.00 0.00 0.00 36 1021.7
20260903010502 79 322 3.0 7.0 0.00 0.00 0.00 36 1021.6
20260903010100 79 280 3.0 7.0 0.00 0.00 0.00 35 1021.7
20260903005551 80 291 3.0 7.0 0.00 0.00 0.00 35 1021.7
20260903005058 80 288 3.0 7.0 0.00 0.00 0.00 35 1021.7
20260903004551 80 271 1.0 6.0 0.00 0.00 0.00 35 1021.7
20260903004059 80 267 2.0 6.0 0.00 0.00 0.00 34 1021.8
20260903003552 80 263 3.0 8.0 0.00 0.00 0.00 34 1021.7
20260903003049 79 226 4.0 12.0 0.00 0.00 0.00 34 1021.9
20260903002551 79 298 8.0 12.0 0.00 0.00 0.00 35 1021.8
20260903002058 79 329 5.0 12.0 0.00 0.00 0.00 38 1021.8
20260903001503 79 330 4.0 12.0 0.00 0.00 0.00 36 1021.8
20260903001055 79 315 6.0 10.0 0.00 0.00 0.00 36 1021.8
20260903000603 79 350 3.0 10.0 0.00 0.00 0.00 38 1021.7
20260903000055 79 323 6.0 13.0 0.00 0.00 0.00 37 1021.8
20260902235546 79 290 8.0 15.0 0.00 0.00 0.00 36 1021.7
20260902235055 79 281 8.0 15.0 0.00 0.00 0.00 35 1021.7
20260902234605 79 312 8.0 12.0 0.00 0.00 0.00 35 1021.8
20260902234004 79 302 9.0 14.0 0.00 0.00 0.00 36 1021.8
20260902233601 79 300 8.0 16.0 0.00 0.00 0.00 35 1021.8
20260902233013 79 282 8.0 16.0 0.00 0.00 0.00 35 1021.8
20260902232602 79 290 8.0 16.0 0.00 0.00 0.00 36 1021.8
20260902232051 79 297 9.0 17.0 0.00 0.00 0.00 37 1021.8
20260902231604 79 277 11.0 20.0 0.00 0.00 0.00 38 1021.7
20260902231053 79 305 10.0 20.0 0.00 0.00 0.00 38 1021.7
20260902230545 80 267 11.0 19.0 0.00 0.00 0.00 38 1021.8
20260902230052 81 319 12.0 19.0 0.00 0.00 0.00 36 1021.7
20260902225559 82 270 11.0 19.0 0.00 0.00 0.00 31 1021.7
20260902225002 82 238 8.0 17.0 0.00 0.00 0.00 29 1021.7
20260902224556 83 292 9.0 17.0 0.00 0.00 0.00 29 1021.8
20260902224104 83 258 9.0 16.0 0.00 0.00 0.00 28 1021.7
20260902223557 85 306 9.0 18.0 0.00 0.00 0.00 27 1021.7
20260902223109 85 329 11.0 18.0 0.00 0.00 0.00 27 1021.6
20260902222600 85 281 6.0 15.0 0.00 0.00 0.00 28 1021.6